contact: severine.martini@mio.osupytheas.fr, dominique.lefevre@mio.osupytheas.fr
Project:EMSO Ligure-ouest http://www.emso-fr.org/EMSO-France
Sensor Microcat Sea-Bird SBE37 SMP,  Serial 57510 
DOI : "https://doi.org/10.17882/97948" 
Title:EMSO Ligure Ouest : Data Bathybot capteur Microcat - deploiement 2023-04-28
Datetime,Profondeur,Latitude,Longitude,Temperature,Conductivite,Pression,Salinite
time,m,degree_north,degree_east,degree_C,S/m,db,PSU 
2023-12-11T00:00:49,2420,42.8014,5.9826,13.2991,4.59928,2453.514,38.4876
2023-12-11T00:03:49,2420,42.8014,5.9826,13.2986,4.59922,2453.491,38.4876
2023-12-11T00:06:49,2420,42.8014,5.9826,13.2989,4.59923,2453.514,38.4874
2023-12-11T00:09:49,2420,42.8014,5.9826,13.2992,4.59922,2453.491,38.4869
2023-12-11T00:12:49,2420,42.8014,5.9826,13.2988,4.59918,2453.477,38.4870
2023-12-11T00:15:49,2420,42.8014,5.9826,13.2987,4.59919,2453.537,38.4871
2023-12-11T00:18:49,2420,42.8014,5.9826,13.2993,4.59920,2453.537,38.4866
2023-12-11T00:21:49,2420,42.8014,5.9826,13.2988,4.59926,2453.514,38.4878
2023-12-11T00:24:49,2420,42.8014,5.9826,13.2990,4.59918,2453.514,38.4868
2023-12-11T00:27:49,2420,42.8014,5.9826,13.2989,4.59919,2453.528,38.4869
2023-12-11T00:30:49,2420,42.8014,5.9826,13.2986,4.59914,2453.537,38.4868
2023-12-11T00:33:49,2420,42.8014,5.9826,13.2986,4.59913,2453.537,38.4867
2023-12-11T00:36:49,2420,42.8014,5.9826,13.2986,4.59913,2453.514,38.4866
2023-12-11T00:39:49,2420,42.8014,5.9826,13.2987,4.59914,2453.522,38.4867
2023-12-11T00:42:49,2420,42.8014,5.9826,13.2986,4.59913,2453.537,38.4866
2023-12-11T00:45:49,2420,42.8014,5.9826,13.2990,4.59918,2453.537,38.4868
2023-12-11T00:48:49,2420,42.8014,5.9826,13.2987,4.59913,2453.514,38.4866
2023-12-11T00:51:49,2420,42.8014,5.9826,13.2984,4.59914,2453.559,38.4869
2023-12-11T00:54:49,2420,42.8014,5.9826,13.2986,4.59917,2453.537,38.4871
2023-12-11T00:57:49,2420,42.8014,5.9826,13.2985,4.59913,2453.544,38.4868
2023-12-11T01:00:49,2420,42.8014,5.9826,13.2985,4.59912,2453.522,38.4868
2023-12-11T01:03:50,2420,42.8014,5.9826,13.2989,4.59916,2453.537,38.4867
2023-12-11T01:06:49,2420,42.8014,5.9826,13.2982,4.59911,2453.537,38.4869
2023-12-11T01:09:49,2420,42.8014,5.9826,13.2985,4.59914,2453.514,38.4870
2023-12-11T01:12:49,2420,42.8014,5.9826,13.2986,4.59912,2453.537,38.4866
2023-12-11T01:15:49,2420,42.8014,5.9826,13.2983,4.59916,2453.559,38.4872
2023-12-11T01:18:49,2420,42.8014,5.9826,13.2986,4.59920,2453.537,38.4873
2023-12-11T01:21:49,2420,42.8014,5.9826,13.2987,4.59917,2453.559,38.4870
2023-12-11T01:24:49,2420,42.8014,5.9826,13.2984,4.59915,2453.537,38.4871
2023-12-11T01:27:49,2420,42.8014,5.9826,13.2985,4.59916,2453.514,38.4871
2023-12-11T01:30:50,2420,42.8014,5.9826,13.2987,4.59914,2453.537,38.4867
2023-12-11T01:33:49,2420,42.8014,5.9826,13.2984,4.59914,2453.559,38.4870
2023-12-11T01:36:49,2420,42.8014,5.9826,13.2986,4.59917,2453.582,38.4870
2023-12-11T01:39:49,2420,42.8014,5.9826,13.2986,4.59919,2453.559,38.4872
2023-12-11T01:42:49,2420,42.8014,5.9826,13.2982,4.59922,2453.559,38.4879
2023-12-11T01:45:49,2420,42.8014,5.9826,13.2985,4.59917,2453.559,38.4871
2023-12-11T01:48:49,2420,42.8014,5.9826,13.2985,4.59918,2453.559,38.4873
2023-12-11T01:51:49,2420,42.8014,5.9826,13.2985,4.59922,2453.582,38.4877
2023-12-11T01:54:49,2420,42.8014,5.9826,13.2986,4.59917,2453.537,38.4871
2023-12-11T01:57:49,2420,42.8014,5.9826,13.2984,4.59923,2453.559,38.4878
2023-12-11T02:00:49,2420,42.8014,5.9826,13.2985,4.59918,2453.582,38.4873
2023-12-11T02:03:49,2420,42.8014,5.9826,13.2986,4.59926,2453.590,38.4878
2023-12-11T02:06:49,2420,42.8014,5.9826,13.2982,4.59922,2453.596,38.4879
2023-12-11T02:09:49,2420,42.8014,5.9826,13.2983,4.59931,2453.582,38.4886
2023-12-11T02:12:49,2420,42.8014,5.9826,13.2991,4.59928,2453.604,38.4877
2023-12-11T02:15:49,2420,42.8014,5.9826,13.2984,4.59921,2453.559,38.4876
2023-12-11T02:18:49,2420,42.8014,5.9826,13.2985,4.59932,2453.604,38.4886
2023-12-11T02:21:49,2420,42.8014,5.9826,13.2986,4.59928,2453.582,38.4881
2023-12-11T02:24:49,2420,42.8014,5.9826,13.2989,4.59926,2453.604,38.4875
2023-12-11T02:27:49,2420,42.8014,5.9826,13.2985,4.59934,2453.627,38.4887
2023-12-11T02:30:49,2420,42.8014,5.9826,13.2984,4.59928,2453.604,38.4883
2023-12-11T02:33:49,2420,42.8014,5.9826,13.2986,4.59948,2453.567,38.4899
2023-12-11T02:36:49,2420,42.8014,5.9826,13.2985,4.59928,2453.641,38.4882
2023-12-11T02:39:49,2420,42.8014,5.9826,13.2987,4.59931,2453.582,38.4883
2023-12-11T02:42:49,2420,42.8014,5.9826,13.2987,4.59930,2453.590,38.4882
2023-12-11T02:45:49,2420,42.8014,5.9826,13.2984,4.59929,2453.649,38.4884
2023-12-11T02:48:49,2420,42.8014,5.9826,13.2985,4.59926,2453.604,38.4880
2023-12-11T02:51:49,2420,42.8014,5.9826,13.2983,4.59935,2453.627,38.4890
2023-12-11T02:54:49,2420,42.8014,5.9826,13.2988,4.59922,2453.627,38.4874
2023-12-11T02:57:49,2420,42.8014,5.9826,13.2988,4.59939,2453.582,38.4889
2023-12-11T03:00:50,2420,42.8014,5.9826,13.2982,4.59949,2453.627,38.4905
2023-12-11T03:03:49,2420,42.8014,5.9826,13.2986,4.59937,2453.582,38.4889
2023-12-11T03:06:49,2420,42.8014,5.9826,13.2982,4.59923,2453.604,38.4881
2023-12-11T03:09:50,2420,42.8014,5.9826,13.2983,4.59925,2453.574,38.4881
2023-12-11T03:12:49,2420,42.8014,5.9826,13.2980,4.59927,2453.604,38.4886
2023-12-11T03:15:49,2420,42.8014,5.9826,13.2982,4.59926,2453.604,38.4883
2023-12-11T03:18:49,2420,42.8014,5.9826,13.2983,4.59928,2453.672,38.4883
2023-12-11T03:21:49,2420,42.8014,5.9826,13.2979,4.59940,2453.672,38.4899
2023-12-11T03:24:49,2420,42.8014,5.9826,13.2985,4.59945,2453.649,38.4898
2023-12-11T03:27:49,2420,42.8014,5.9826,13.2985,4.59949,2453.672,38.4902
2023-12-11T03:30:49,2420,42.8014,5.9826,13.2985,4.59946,2453.649,38.4899
2023-12-11T03:33:49,2420,42.8014,5.9826,13.2982,4.59939,2453.672,38.4895
2023-12-11T03:36:49,2420,42.8014,5.9826,13.2981,4.59944,2453.672,38.4901
2023-12-11T03:39:49,2420,42.8014,5.9826,13.2982,4.59935,2453.717,38.4891
2023-12-11T03:42:49,2420,42.8014,5.9826,13.2982,4.59947,2453.657,38.4903
2023-12-11T03:45:49,2420,42.8014,5.9826,13.2985,4.59939,2453.649,38.4892
2023-12-11T03:48:49,2420,42.8014,5.9826,13.2982,4.59952,2453.672,38.4907
2023-12-11T03:51:49,2420,42.8014,5.9826,13.2983,4.59955,2453.672,38.4909
2023-12-11T03:54:49,2420,42.8014,5.9826,13.2980,4.59947,2453.672,38.4904
2023-12-11T03:57:49,2420,42.8014,5.9826,13.2990,4.59953,2453.695,38.4900
2023-12-11T04:00:49,2420,42.8014,5.9826,13.2981,4.59948,2453.672,38.4904
2023-12-11T04:03:49,2420,42.8014,5.9826,13.2982,4.59937,2453.695,38.4893
2023-12-11T04:06:49,2420,42.8014,5.9826,13.2985,4.59957,2453.672,38.4909
2023-12-11T04:09:49,2420,42.8014,5.9826,13.2982,4.59947,2453.695,38.4903
2023-12-11T04:12:49,2420,42.8014,5.9826,13.2982,4.59928,2453.695,38.4885
2023-12-11T04:15:49,2420,42.8014,5.9826,13.2982,4.59931,2453.695,38.4888
2023-12-11T04:18:49,2420,42.8014,5.9826,13.2982,4.59929,2453.680,38.4886
2023-12-11T04:21:49,2420,42.8014,5.9826,13.2985,4.59940,2453.695,38.4893
2023-12-11T04:24:49,2420,42.8014,5.9826,13.2979,4.59937,2453.717,38.4896
2023-12-11T04:27:49,2420,42.8014,5.9826,13.2982,4.59950,2453.695,38.4905
2023-12-11T04:30:49,2420,42.8014,5.9826,13.2983,4.59962,2453.717,38.4916
2023-12-11T04:33:49,2420,42.8014,5.9826,13.2983,4.59947,2453.717,38.4901
2023-12-11T04:36:49,2420,42.8014,5.9826,13.2979,4.59959,2453.717,38.4916
2023-12-11T04:39:49,2420,42.8014,5.9826,13.2980,4.59961,2453.717,38.4918
2023-12-11T04:42:49,2420,42.8014,5.9826,13.2983,4.59962,2453.740,38.4915
2023-12-11T04:45:49,2420,42.8014,5.9826,13.3011,4.59966,2453.709,38.4891
2023-12-11T04:48:49,2420,42.8014,5.9826,13.2992,4.59982,2453.740,38.4925
2023-12-11T04:51:50,2420,42.8014,5.9826,13.2984,4.59968,2453.740,38.4920
2023-12-11T04:54:49,2420,42.8014,5.9826,13.2981,4.59994,2453.695,38.4948
2023-12-11T04:57:49,2420,42.8014,5.9826,13.2993,4.60113,2453.695,38.5048
2023-12-11T05:00:49,2420,42.8014,5.9826,13.2993,4.60092,2453.717,38.5028
2023-12-11T05:03:49,2420,42.8014,5.9826,13.2993,4.60011,2453.754,38.4952
2023-12-11T05:06:49,2420,42.8014,5.9826,13.2992,4.60002,2453.717,38.4944
2023-12-11T05:09:49,2420,42.8014,5.9826,13.2987,4.59980,2453.740,38.4928
2023-12-11T05:12:49,2420,42.8014,5.9826,13.2986,4.60184,2453.740,38.5122
2023-12-11T05:15:49,2420,42.8014,5.9826,13.2996,4.60114,2453.740,38.5046
2023-12-11T05:18:49,2420,42.8014,5.9826,13.3008,4.60108,2453.748,38.5028
2023-12-11T05:21:49,2420,42.8014,5.9826,13.2999,4.60073,2453.740,38.5004
2023-12-11T05:24:49,2420,42.8014,5.9826,13.2998,4.60117,2453.740,38.5046
2023-12-11T05:27:49,2420,42.8014,5.9826,13.2991,4.60038,2453.740,38.4979
2023-12-11T05:30:49,2420,42.8014,5.9826,13.2988,4.60156,2453.740,38.5094
2023-12-11T05:33:49,2420,42.8014,5.9826,13.2988,4.60028,2453.740,38.4973
2023-12-11T05:36:49,2420,42.8014,5.9826,13.3000,4.59999,2453.762,38.4933
2023-12-11T05:39:49,2420,42.8014,5.9826,13.3016,4.60001,2453.740,38.4920
2023-12-11T05:42:49,2420,42.8014,5.9826,13.3020,4.59993,2453.762,38.4908
2023-12-11T05:45:49,2420,42.8014,5.9826,13.3003,4.60005,2453.762,38.4935
2023-12-11T05:48:49,2420,42.8014,5.9826,13.3045,4.59999,2453.754,38.4888
2023-12-11T05:51:49,2420,42.8014,5.9826,13.3005,4.59964,2453.762,38.4895
2023-12-11T05:54:49,2420,42.8014,5.9826,13.3001,4.60017,2453.740,38.4949
2023-12-11T05:57:49,2420,42.8014,5.9826,13.3017,4.60006,2453.762,38.4923
2023-12-11T06:00:49,2420,42.8014,5.9826,13.3031,4.59973,2453.762,38.4877
2023-12-11T06:03:49,2420,42.8014,5.9826,13.3007,4.60010,2453.762,38.4937
2023-12-11T06:06:49,2420,42.8014,5.9826,13.3049,4.59982,2453.762,38.4869
2023-12-11T06:09:49,2420,42.8014,5.9826,13.3011,4.59985,2453.740,38.4909
2023-12-11T06:12:49,2420,42.8014,5.9826,13.3019,4.59981,2453.762,38.4898
2023-12-11T06:15:49,2420,42.8014,5.9826,13.3010,4.60079,2453.762,38.4998
2023-12-11T06:18:49,2420,42.8014,5.9826,13.3069,4.60064,2453.717,38.4926
2023-12-11T06:21:49,2420,42.8014,5.9826,13.3088,4.60150,2453.762,38.4988
2023-12-11T06:24:49,2420,42.8014,5.9826,13.3105,4.60064,2453.785,38.4890
2023-12-11T06:27:49,2420,42.8014,5.9826,13.3079,4.60008,2453.740,38.4863
2023-12-11T06:30:49,2420,42.8014,5.9826,13.3036,4.59991,2453.762,38.4889
2023-12-11T06:33:49,2420,42.8014,5.9826,13.3047,4.60041,2453.762,38.4926
2023-12-11T06:36:49,2420,42.8014,5.9826,13.3070,4.59971,2453.740,38.4838
2023-12-11T06:39:49,2420,42.8014,5.9826,13.3030,4.59980,2453.740,38.4886
2023-12-11T06:42:49,2420,42.8014,5.9826,13.3046,4.60013,2453.762,38.4901
2023-12-11T06:45:49,2420,42.8014,5.9826,13.3027,4.59965,2453.777,38.4874
2023-12-11T06:48:49,2420,42.8014,5.9826,13.3064,4.60016,2453.762,38.4885
2023-12-11T06:51:49,2420,42.8014,5.9826,13.2996,4.59980,2453.740,38.4920
2023-12-11T06:54:49,2420,42.8014,5.9826,13.3069,4.59999,2453.740,38.4865
2023-12-11T06:57:49,2420,42.8014,5.9826,13.3046,4.59989,2453.754,38.4878
2023-12-11T07:00:49,2420,42.8014,5.9826,13.3002,4.60024,2453.740,38.4955
2023-12-11T07:03:49,2420,42.8014,5.9826,13.3129,4.60079,2453.740,38.4881
2023-12-11T07:06:49,2420,42.8014,5.9826,13.3026,4.60027,2453.717,38.4934
2023-12-11T07:09:49,2420,42.8014,5.9826,13.3045,4.60121,2453.740,38.5004
2023-12-11T07:12:49,2420,42.8014,5.9826,13.3027,4.60124,2453.777,38.5025
2023-12-11T07:15:49,2420,42.8014,5.9826,13.3117,4.60084,2453.762,38.4898
2023-12-11T07:18:49,2420,42.8014,5.9826,13.3097,4.60067,2453.740,38.4901
2023-12-11T07:21:49,2420,42.8014,5.9826,13.3102,4.60084,2453.740,38.4912
2023-12-11T07:24:49,2420,42.8014,5.9826,13.3067,4.60034,2453.754,38.4900
2023-12-11T07:27:50,2420,42.8014,5.9826,13.3104,4.59993,2453.740,38.4825
2023-12-11T07:30:49,2420,42.8014,5.9826,13.3080,4.60034,2453.740,38.4887
2023-12-11T07:33:49,2420,42.8014,5.9826,13.3088,4.59982,2453.740,38.4830
2023-12-11T07:36:49,2420,42.8014,5.9826,13.3045,4.59996,2453.732,38.4886
2023-12-11T07:39:49,2420,42.8014,5.9826,13.3090,4.60070,2453.762,38.4911
2023-12-11T07:42:49,2420,42.8014,5.9826,13.3043,4.60025,2453.740,38.4915
2023-12-11T07:45:49,2420,42.8014,5.9826,13.3084,4.60010,2453.740,38.4860
2023-12-11T07:48:49,2420,42.8014,5.9826,13.3058,4.60022,2453.740,38.4898
2023-12-11T07:51:50,2420,42.8014,5.9826,13.3083,4.59985,2453.762,38.4839
2023-12-11T07:54:49,2420,42.8014,5.9826,13.3061,4.60031,2453.740,38.4902
2023-12-11T07:57:49,2420,42.8014,5.9826,13.3064,4.59977,2453.762,38.4849
2023-12-11T08:00:49,2420,42.8014,5.9826,13.3057,4.59994,2453.777,38.4872
2023-12-11T08:03:49,2420,42.8014,5.9826,13.2988,4.59970,2453.762,38.4918
2023-12-11T08:06:49,2420,42.8014,5.9826,13.3021,4.59980,2453.695,38.4894
2023-12-11T08:09:49,2420,42.8014,5.9826,13.3040,4.59988,2453.777,38.4883
2023-12-11T08:12:49,2420,42.8014,5.9826,13.3026,4.59977,2453.740,38.4888
2023-12-11T08:15:49,2420,42.8014,5.9826,13.2994,4.59967,2453.762,38.4909
2023-12-11T08:18:49,2420,42.8014,5.9826,13.3007,4.59980,2453.717,38.4908
2023-12-11T08:21:49,2420,42.8014,5.9826,13.3004,4.59977,2453.725,38.4908
2023-12-11T08:24:49,2420,42.8014,5.9826,13.2998,4.59954,2453.740,38.4893
2023-12-11T08:27:49,2420,42.8014,5.9826,13.3009,4.59959,2453.762,38.4887
2023-12-11T08:30:49,2420,42.8014,5.9826,13.3018,4.59997,2453.695,38.4914
2023-12-11T08:33:49,2420,42.8014,5.9826,13.2993,4.59993,2453.672,38.4935
2023-12-11T08:36:49,2420,42.8014,5.9826,13.3011,4.59962,2453.672,38.4888
2023-12-11T08:39:49,2420,42.8014,5.9826,13.3000,4.59960,2453.695,38.4897
2023-12-11T08:42:49,2420,42.8014,5.9826,13.3003,4.59954,2453.695,38.4887
2023-12-11T08:45:49,2420,42.8014,5.9826,13.3005,4.59950,2453.717,38.4882
2023-12-11T08:48:49,2420,42.8014,5.9826,13.2992,4.59956,2453.717,38.4901
2023-12-11T08:51:49,2420,42.8014,5.9826,13.3000,4.59958,2453.695,38.4894
2023-12-11T08:54:49,2420,42.8014,5.9826,13.3013,4.59963,2453.695,38.4887
2023-12-11T08:57:49,2420,42.8014,5.9826,13.3000,4.59955,2453.717,38.4893
2023-12-11T09:00:49,2420,42.8014,5.9826,13.3009,4.59951,2453.785,38.4879
2023-12-11T09:03:49,2420,42.8014,5.9826,13.3000,4.59954,2453.740,38.4890
2023-12-11T09:06:49,2420,42.8014,5.9826,13.2993,4.59966,2453.748,38.4910
2023-12-11T09:09:49,2420,42.8014,5.9826,13.2999,4.59943,2453.717,38.4881
2023-12-11T09:12:49,2420,42.8014,5.9826,13.2996,4.59956,2453.732,38.4896
2023-12-11T09:15:49,2420,42.8014,5.9826,13.2998,4.59949,2453.717,38.4889
2023-12-11T09:18:49,2420,42.8014,5.9826,13.2995,4.59951,2453.725,38.4893
2023-12-11T09:21:49,2420,42.8014,5.9826,13.2991,4.59932,2453.717,38.4879
2023-12-11T09:24:49,2420,42.8014,5.9826,13.2985,4.59948,2453.717,38.4900
2023-12-11T09:27:49,2420,42.8014,5.9826,13.2998,4.59949,2453.740,38.4889
2023-12-11T09:30:49,2420,42.8014,5.9826,13.3000,4.59936,2453.732,38.4873
2023-12-11T09:33:49,2420,42.8014,5.9826,13.2990,4.59936,2453.740,38.4884
2023-12-11T09:36:49,2420,42.8014,5.9826,13.2985,4.59937,2453.740,38.4891
2023-12-11T09:39:49,2420,42.8014,5.9826,13.2993,4.59925,2453.717,38.4870
2023-12-11T09:42:49,2420,42.8014,5.9826,13.2987,4.59942,2453.695,38.4892
2023-12-11T09:45:49,2420,42.8014,5.9826,13.2984,4.59933,2453.695,38.4887
2023-12-11T09:48:49,2420,42.8014,5.9826,13.2987,4.59926,2453.717,38.4877
2023-12-11T09:51:49,2420,42.8014,5.9826,13.2985,4.59928,2453.702,38.4882
2023-12-11T09:54:49,2420,42.8014,5.9826,13.2979,4.59928,2453.717,38.4887
2023-12-11T09:57:49,2420,42.8014,5.9826,13.2991,4.59925,2453.695,38.4872
2023-12-11T10:00:49,2420,42.8014,5.9826,13.2986,4.59936,2453.695,38.4888
2023-12-11T10:03:49,2420,42.8014,5.9826,13.2984,4.59930,2453.717,38.4884
2023-12-11T10:06:49,2420,42.8014,5.9826,13.2981,4.59926,2453.680,38.4883
2023-12-11T10:09:49,2420,42.8014,5.9826,13.2981,4.59927,2453.702,38.4884
2023-12-11T10:12:49,2420,42.8014,5.9826,13.2988,4.59923,2453.695,38.4873
2023-12-11T10:15:49,2420,42.8014,5.9826,13.2984,4.59923,2453.695,38.4878
2023-12-11T10:18:49,2420,42.8014,5.9826,13.2984,4.59928,2453.695,38.4883
2023-12-11T10:21:49,2420,42.8014,5.9826,13.2982,4.59926,2453.695,38.4883
2023-12-11T10:24:49,2420,42.8014,5.9826,13.2988,4.59919,2453.672,38.4870
2023-12-11T10:27:49,2420,42.8014,5.9826,13.2985,4.59921,2453.672,38.4875
2023-12-11T10:30:49,2420,42.8014,5.9826,13.2982,4.59927,2453.672,38.4884
2023-12-11T10:33:49,2420,42.8014,5.9826,13.2984,4.59922,2453.672,38.4877
2023-12-11T10:36:49,2420,42.8014,5.9826,13.2983,4.59926,2453.672,38.4881
2023-12-11T10:39:49,2420,42.8014,5.9826,13.2985,4.59917,2453.695,38.4872
2023-12-11T10:42:49,2420,42.8014,5.9826,13.2984,4.59922,2453.687,38.4877
2023-12-11T10:45:49,2420,42.8014,5.9826,13.2982,4.59919,2453.695,38.4876
2023-12-11T10:48:49,2420,42.8014,5.9826,13.2980,4.59923,2453.695,38.4881
2023-12-11T10:51:49,2420,42.8014,5.9826,13.2982,4.59928,2453.695,38.4884
2023-12-11T10:54:49,2420,42.8014,5.9826,13.2983,4.59923,2453.672,38.4879
2023-12-11T10:57:49,2420,42.8014,5.9826,13.2983,4.59925,2453.672,38.4880
2023-12-11T11:00:49,2420,42.8014,5.9826,13.2982,4.59920,2453.672,38.4877
2023-12-11T11:03:49,2420,42.8014,5.9826,13.2986,4.59917,2453.627,38.4871
2023-12-11T11:06:49,2420,42.8014,5.9826,13.2980,4.59914,2453.672,38.4873
2023-12-11T11:09:49,2420,42.8014,5.9826,13.2984,4.59917,2453.672,38.4873
2023-12-11T11:12:49,2420,42.8014,5.9826,13.2985,4.59920,2453.687,38.4874
2023-12-11T11:15:49,2420,42.8014,5.9826,13.2983,4.59922,2453.672,38.4878
2023-12-11T11:18:49,2420,42.8014,5.9826,13.2986,4.59923,2453.649,38.4876
2023-12-11T11:21:49,2420,42.8014,5.9826,13.2984,4.59918,2453.635,38.4873
2023-12-11T11:24:49,2420,42.8014,5.9826,13.2986,4.59929,2453.672,38.4881
2023-12-11T11:27:49,2420,42.8014,5.9826,13.2985,4.59923,2453.687,38.4877
2023-12-11T11:30:49,2420,42.8014,5.9826,13.2985,4.59926,2453.635,38.4880
2023-12-11T11:33:49,2420,42.8014,5.9826,13.2984,4.59923,2453.627,38.4878
2023-12-11T11:36:49,2420,42.8014,5.9826,13.2978,4.59917,2453.672,38.4878
2023-12-11T11:39:49,2420,42.8014,5.9826,13.2982,4.59927,2453.649,38.4884
2023-12-11T11:42:49,2420,42.8014,5.9826,13.2985,4.59926,2453.664,38.4879
2023-12-11T11:45:49,2420,42.8014,5.9826,13.2979,4.59925,2453.635,38.4884
2023-12-11T11:48:49,2420,42.8014,5.9826,13.2985,4.59921,2453.664,38.4875
2023-12-11T11:51:50,2420,42.8014,5.9826,13.2982,4.59921,2453.649,38.4878
2023-12-11T11:54:49,2420,42.8014,5.9826,13.2991,4.59921,2453.612,38.4869
2023-12-11T11:57:49,2420,42.8014,5.9826,13.2982,4.59923,2453.649,38.4881
2023-12-11T12:00:49,2420,42.8014,5.9826,13.2985,4.59917,2453.627,38.4871
2023-12-11T12:03:49,2420,42.8014,5.9826,13.2984,4.59931,2453.649,38.4886
2023-12-11T12:06:49,2420,42.8014,5.9826,13.2984,4.59926,2453.627,38.4880
2023-12-11T12:09:49,2420,42.8014,5.9826,13.2986,4.59920,2453.672,38.4873
2023-12-11T12:12:49,2420,42.8014,5.9826,13.2982,4.59920,2453.649,38.4878
2023-12-11T12:15:49,2420,42.8014,5.9826,13.2985,4.59920,2453.649,38.4874
2023-12-11T12:18:49,2420,42.8014,5.9826,13.2986,4.59917,2453.672,38.4870
2023-12-11T12:21:49,2420,42.8014,5.9826,13.2982,4.59921,2453.649,38.4879
2023-12-11T12:24:49,2420,42.8014,5.9826,13.2987,4.59926,2453.641,38.4877
2023-12-11T12:27:49,2420,42.8014,5.9826,13.2985,4.59921,2453.649,38.4875
2023-12-11T12:30:49,2420,42.8014,5.9826,13.2980,4.59924,2453.649,38.4883
2023-12-11T12:33:49,2420,42.8014,5.9826,13.2988,4.59921,2453.649,38.4872
2023-12-11T12:36:49,2420,42.8014,5.9826,13.2981,4.59917,2453.627,38.4875
2023-12-11T12:39:49,2420,42.8014,5.9826,13.2986,4.59917,2453.627,38.4870
2023-12-11T12:42:49,2420,42.8014,5.9826,13.2986,4.59920,2453.649,38.4873
2023-12-11T12:45:49,2420,42.8014,5.9826,13.2985,4.59928,2453.641,38.4882
2023-12-11T12:48:49,2420,42.8014,5.9826,13.2985,4.59915,2453.649,38.4870
2023-12-11T12:51:49,2420,42.8014,5.9826,13.2979,4.59920,2453.635,38.4879
2023-12-11T12:54:49,2420,42.8014,5.9826,13.2986,4.59920,2453.649,38.4874
2023-12-11T12:57:49,2420,42.8014,5.9826,13.2983,4.59914,2453.649,38.4870
2023-12-11T13:00:49,2420,42.8014,5.9826,13.2979,4.59912,2453.649,38.4873
2023-12-11T13:03:49,2420,42.8014,5.9826,13.2980,4.59912,2453.649,38.4872
2023-12-11T13:06:49,2420,42.8014,5.9826,13.2985,4.59913,2453.657,38.4867
2023-12-11T13:09:49,2420,42.8014,5.9826,13.2979,4.59911,2453.649,38.4871
2023-12-11T13:12:49,2420,42.8014,5.9826,13.2985,4.59911,2453.627,38.4866
2023-12-11T13:15:49,2420,42.8014,5.9826,13.2985,4.59913,2453.627,38.4868
2023-12-11T13:18:49,2420,42.8014,5.9826,13.2983,4.59927,2453.635,38.4883
2023-12-11T13:21:49,2420,42.8014,5.9826,13.2983,4.59918,2453.627,38.4874
2023-12-11T13:24:49,2420,42.8014,5.9826,13.2979,4.59917,2453.664,38.4877
2023-12-11T13:27:49,2420,42.8014,5.9826,13.2983,4.59915,2453.635,38.4871
2023-12-11T13:30:49,2420,42.8014,5.9826,13.2984,4.59926,2453.627,38.4881
2023-12-11T13:33:50,2420,42.8014,5.9826,13.2986,4.59922,2453.627,38.4875
2023-12-11T13:36:49,2420,42.8014,5.9826,13.2983,4.59928,2453.672,38.4883
2023-12-11T13:39:49,2420,42.8014,5.9826,13.2982,4.59916,2453.657,38.4873
2023-12-11T13:42:49,2420,42.8014,5.9826,13.2982,4.59922,2453.627,38.4880
2023-12-11T13:45:49,2420,42.8014,5.9826,13.2982,4.59922,2453.627,38.4880
2023-12-11T13:48:49,2420,42.8014,5.9826,13.2981,4.59927,2453.649,38.4885
2023-12-11T13:51:49,2420,42.8014,5.9826,13.2984,4.59920,2453.657,38.4875
2023-12-11T13:54:49,2420,42.8014,5.9826,13.2985,4.59926,2453.672,38.4880
2023-12-11T13:57:49,2420,42.8014,5.9826,13.2984,4.59919,2453.695,38.4874
2023-12-11T14:00:49,2420,42.8014,5.9826,13.2985,4.59924,2453.627,38.4878
2023-12-11T14:03:49,2420,42.8014,5.9826,13.2983,4.59926,2453.672,38.4882
2023-12-11T14:06:49,2420,42.8014,5.9826,13.2984,4.59924,2453.672,38.4879
2023-12-11T14:09:49,2420,42.8014,5.9826,13.2984,4.59929,2453.627,38.4884
2023-12-11T14:12:49,2420,42.8014,5.9826,13.2981,4.59915,2453.635,38.4874
2023-12-11T14:15:49,2420,42.8014,5.9826,13.2981,4.59918,2453.604,38.4877
2023-12-11T14:18:49,2420,42.8014,5.9826,13.2984,4.59922,2453.635,38.4877
2023-12-11T14:21:49,2420,42.8014,5.9826,13.2982,4.59926,2453.627,38.4883
2023-12-11T14:24:49,2420,42.8014,5.9826,13.2980,4.59920,2453.672,38.4879
2023-12-11T14:27:49,2420,42.8014,5.9826,13.2986,4.59918,2453.657,38.4871
2023-12-11T14:30:49,2420,42.8014,5.9826,13.2985,4.59917,2453.627,38.4872
2023-12-11T14:33:49,2420,42.8014,5.9826,13.2981,4.59917,2453.649,38.4875
2023-12-11T14:36:49,2420,42.8014,5.9826,13.2985,4.59915,2453.672,38.4869
2023-12-11T14:39:49,2420,42.8014,5.9826,13.2984,4.59915,2453.695,38.4870
2023-12-11T14:42:49,2420,42.8014,5.9826,13.2984,4.59916,2453.635,38.4871
2023-12-11T14:45:49,2420,42.8014,5.9826,13.2984,4.59918,2453.649,38.4873
2023-12-11T14:48:49,2420,42.8014,5.9826,13.2985,4.59920,2453.649,38.4874
2023-12-11T14:51:49,2420,42.8014,5.9826,13.2980,4.59920,2453.649,38.4879
2023-12-11T14:54:49,2420,42.8014,5.9826,13.2981,4.59924,2453.649,38.4882
2023-12-11T14:57:49,2420,42.8014,5.9826,13.2983,4.59918,2453.672,38.4874
2023-12-11T15:00:49,2420,42.8014,5.9826,13.2983,4.59927,2453.672,38.4883
2023-12-11T15:03:49,2420,42.8014,5.9826,13.2986,4.59925,2453.672,38.4877
2023-12-11T15:06:49,2420,42.8014,5.9826,13.2986,4.59928,2453.635,38.4881
2023-12-11T15:09:49,2420,42.8014,5.9826,13.2984,4.59925,2453.672,38.4879
2023-12-11T15:12:49,2420,42.8014,5.9826,13.2982,4.59920,2453.680,38.4877
2023-12-11T15:15:49,2420,42.8014,5.9826,13.2983,4.59923,2453.680,38.4879
2023-12-11T15:18:49,2420,42.8014,5.9826,13.2985,4.59925,2453.672,38.4879
2023-12-11T15:21:49,2420,42.8014,5.9826,13.2983,4.59922,2453.695,38.4878
2023-12-11T15:24:49,2420,42.8014,5.9826,13.2982,4.59922,2453.695,38.4879
2023-12-11T15:27:49,2420,42.8014,5.9826,13.2984,4.59923,2453.695,38.4878
2023-12-11T15:30:49,2420,42.8014,5.9826,13.2983,4.59921,2453.695,38.4877
2023-12-11T15:33:49,2420,42.8014,5.9826,13.2981,4.59928,2453.695,38.4885
2023-12-11T15:36:49,2420,42.8014,5.9826,13.2982,4.59916,2453.695,38.4873
2023-12-11T15:39:49,2420,42.8014,5.9826,13.2981,4.59921,2453.672,38.4879
2023-12-11T15:42:49,2420,42.8014,5.9826,13.2982,4.59922,2453.717,38.4879
2023-12-11T15:45:49,2420,42.8014,5.9826,13.2986,4.59921,2453.717,38.4873
2023-12-11T15:48:49,2420,42.8014,5.9826,13.2986,4.59927,2453.695,38.4879
2023-12-11T15:51:49,2420,42.8014,5.9826,13.2984,4.59926,2453.717,38.4880
2023-12-11T15:54:49,2420,42.8014,5.9826,13.2982,4.59922,2453.732,38.4879
2023-12-11T15:57:49,2420,42.8014,5.9826,13.2983,4.59923,2453.717,38.4878
2023-12-11T16:00:49,2420,42.8014,5.9826,13.2986,4.59923,2453.717,38.4875
2023-12-11T16:03:49,2420,42.8014,5.9826,13.2987,4.59920,2453.717,38.4871